#timestamp,LO_Frequency,Hit,StdDev 
1545368415.8,286046998.5,N
1545368435.6,286046998.7,N
1545368455.5,286047001.2,N
1545368475.3,286046999.1,N
1545368495.1,286046998.5,N
1545368515.9,286046998.6,N
1545368535.7,286046999.4,N
1545368555.6,286046998.2,N
1545368575.4,286047001.0,N
1545368595.2,286047000.7,N
1545368615.1,286047000.2,N
1545368616.0,286047000.2,N
1545368635.8,286047002.0,N
1545368655.7,286047001.5,N
1545368675.5,286047004.3,Y
1545368695.3,286047001.3,P
1545368715.2,286047002.1,P
1545368735.0,286047001.3,N
1545368735.9,286047001.3,N
1545368755.8,286047004.2,Y
1545368775.6,286047001.9,P
1545368795.4,286047002.6,P
1545368815.3,286047001.9,P
1545368835.1,286047002.0,Y
1545368855.8,286046999.9,P
1545368875.7,286047000.3,N
1545368895.5,286047000.7,N
1545368915.4,286046998.1,N
1545368935.2,286047001.2,N
1545368955.0,286046996.9,N
1545368955.9,286046996.9,N
1545368975.5,286046997.5,N
1545368995.3,286046997.7,N
1545369015.2,286046996.7,N
1545369035.0,286046999.3,N
1545369035.9,286046999.3,N
1545369055.8,286046998.1,N
1545369075.6,286047000.3,N
1545369095.4,286047000.9,N
1545369115.3,286046998.5,N
1545369135.1,286046998.5,N
1545369155.8,286046996.5,N
1545369175.7,286046996.9,N
1545369195.5,286046996.5,N
1545369215.4,286047001.1,N
1545369235.2,286047001.1,N
1545369255.0,286047001.1,N
1545369255.9,286047001.1,N
1545369275.8,286047000.9,N
1545369295.6,286047000.5,N
1545369315.4,286047000.2,N
1545369335.3,286047000.3,N
1545369355.1,286046999.8,N
1545369375.9,286047002.8,N
1545369395.7,286046999.9,N
1545369415.5,286047000.3,N
1545369435.4,286047000.5,N
1545369455.2,286047002.0,N
1545369475.0,286047002.6,N
1545369475.9,286047002.6,N
1545369495.8,286047000.2,N
1545369515.6,286047000.3,N
1545369535.5,286047001.1,N
1545369555.3,286046999.9,N
1545369575.1,286047000.0,N
1545369595.9,286047002.6,N
1545369615.7,286047002.7,N
1545369635.5,286047001.9,N
1545369655.4,286047002.0,N
1545369675.2,286047001.5,N
1545369695.1,286047001.6,N
1545369696.0,286047001.6,N
1545369715.8,286047001.0,N
1545369735.6,286047001.1,N
1545369755.5,286046999.8,N
1545369775.3,286047001.9,N
1545369795.1,286047002.1,N
1545369815.9,286047002.2,N
1545369835.7,286047001.5,N
1545369855.6,286047003.4,Y
1545369875.4,286047003.9,P
1545369895.2,286047002.5,N
1545369915.1,286047000.1,N
1545369916.0,286047000.1,N
1545369935.8,286047001.1,N
1545369955.7,286046999.9,N
1545369975.5,286047000.2,N
1545369995.3,286047002.5,N
1545370015.2,286047000.0,N
1545370035.0,286047002.4,N
1545370035.9,286047002.4,N
1545370055.8,286047000.3,N
1545370075.6,286046998.5,N
1545370095.4,286046999.2,N
1545370115.3,286046998.3,N
1545370135.1,286046998.7,N
1545370155.9,286046998.3,N
1545370175.7,286047001.2,N
1545370195.5,286047001.1,N
1545370215.4,286046998.8,N
1545370235.2,286046998.8,N
1545370255.0,286046999.0,N
1545370255.9,286046999.0,N
1545370275.8,286046998.9,N
1545370295.6,286046998.9,N
1545370315.5,286046996.9,N
1545370335.3,286046999.2,N
1545370355.1,286046999.4,N
1545370375.9,286047001.2,N
1545370395.7,286046998.6,N
1545370415.5,286046996.5,N
1545370435.4,286046998.8,N
1545370455.2,286046998.7,N
1545370475.1,286046998.7,N
1545370476.0,286046998.7,N
1545370495.8,286046998.1,N
1545370515.6,286047000.5,N
1545370535.5,286047002.8,N
1545370555.3,286047000.4,N
1545370575.1,286047002.8,N
1545370595.9,286047002.2,N
1545370615.7,286047001.6,N
1545370635.6,286047004.3,N
1545370655.4,286047001.9,N
1545370675.2,286047002.3,N
1545370695.1,286047002.8,N
1545370696.0,286047002.8,N
1545370715.8,286047001.7,N
1545370735.7,286047001.7,N
1545370755.5,286047001.5,N
1545370775.3,286047002.7,N
1545370795.2,286047002.7,N
1545370815.0,286047001.6,N
1545370815.9,286047001.6,N
1545370835.7,286047002.2,N
1545370855.6,286046999.7,N
1545370875.4,286046999.7,N
1545370895.3,286047001.9,N
1545370915.1,286047002.0,N
1545370916.0,286047002.0,N
1545370935.8,286047001.8,N
1545370955.7,286047001.5,N
1545370975.5,286047001.3,N
1545370995.4,286047002.4,N
1545371015.2,286047002.8,N
1545371035.0,286047002.6,N
1545371035.9,286047002.6,N
1545371055.8,286047002.0,N
1545371075.6,286047002.6,N
1545371095.4,286046999.7,N
1545371115.3,286047000.9,N
1545371135.1,286047002.1,N
1545371155.9,286046999.9,N
1545371175.7,286047000.0,N
1545371195.5,286047000.8,N
1545371215.4,286047000.2,N
1545371235.2,286047002.4,N
1545371255.0,286047000.8,N
1545371256.0,286047000.8,N
1545371275.8,286046999.9,N
1545371295.6,286047000.6,N
1545371315.5,286047000.2,N
1545371335.3,286047000.2,N
1545371355.1,286047001.3,N
1545371375.9,286047004.0,Y
1545371395.7,286047001.2,P
1545371415.6,286046998.2,P
1545371435.4,286047000.4,N
1545371455.2,286047000.4,N
1545371475.0,286047000.8,N
1545371475.9,286047000.8,N
1545371495.8,286046999.4,N
1545371515.6,286047000.6,N
1545371535.4,286046999.8,N
1545371555.3,286047002.4,N
1545371575.1,286047002.8,N
1545371595.9,286047000.3,N
1545371615.7,286047002.1,N
1545371635.5,286047002.7,N
1545371655.4,286047000.0,N
1545371675.2,286047002.5,N
1545371695.0,286047000.2,N
1545371695.9,286047000.2,N
1545371715.8,286047000.2,N
1545371735.6,286047001.7,N
1545371755.5,286046999.7,N
1545371775.3,286047000.2,N
1545371795.1,286047002.8,N
1545371815.9,286047000.6,N
1545371835.7,286046999.3,N
1545371855.6,286046997.3,N
1545371875.4,286046997.1,N
1545371895.2,286046997.5,N
1545371915.1,286046999.0,N
1545371916.0,286046999.0,N
1545371935.8,286046998.4,N
1545371955.7,286047000.1,N
1545371975.5,286047000.4,N
1545371995.3,286047002.8,N
